Weather History for KLNC - November, 2012

Change the Weather History Date:

Friday, November 23, 2012

  Actual Average (KDFW) Record (KDFW)
Temperature  
Mean Temperature 54 °F 53 °F  
Max Temperature 64 °F 64 °F 82 °F (2005)
Min Temperature 44 °F 43 °F 22 °F (1975)
Degree Days  
Heating Degree Days 11 12  
Month to date heating degree days 188  
Since 1 July heating degree days 260  
Cooling Degree Days 0 0  
Month to date cooling degree days 27  
Year to date cooling degree days 2750  
Growing Degree Days 4 (Base 50)    
Moisture  
Dew Point 35 °F    
Average Humidity 50    
Maximum Humidity 94    
Minimum Humidity 22    
Precipitation  
Precipitation 0.00 in 0.08 in 1.66 in (1952)
Month to date precipitation 2.19  
Year to date precipitation 33.07  
Snow  
Snow 0.00 in 0.00 in T in (1940)
Month to date snowfall 0.0  
Since 1 July snowfall 0.0  
Since 1 September snowfall 0.0  
Snow Depth -    
Sea Level Pressure  
Sea Level Pressure 30.32 in    
Wind  
Wind Speed 7 mph (NNE)    
Max Wind Speed 21 mph    
Max Gust Speed 31 mph    
Visibility 10 miles    
Events      
T = Trace of Precipitation, MM = Missing Value Source: NWS Daily Summary

Daily Weather History Graph

Daily Weather History Graph

Search for Another Location

Airport or City:

Trip Planner

Search our weather history database for the weather conditions in past years. The results will help you decide how hot, cold, wet, or windy it might be!

Date:

Astronomy

Nov. 23, 2012 Rise Set
Actual Time 7:04 AM CST 5:22 PM CST
Civil Twilight 6:37 AM CST 5:48 PM CST
Nautical Twilight 6:07 AM CST 6:18 PM CST
Astronomical Twilight 5:38 AM CST 6:48 PM CST
Moon 2:26 PM CST (11/23) 2:37 AM CST (11/23)
Length of Visible Light 11h 11m
Length of Day
10h 18m
Waxing Gibbous, 80% of the Moon is Illuminated
Nov 23
Waxing Gibbous
Nov 28
Full
Dec 6
Last Quarter
Dec 13
New
Dec 19
First Quarter

Hourly Weather History & Observations

Time (CST) Temp. Windchill Dew Point Humidity Pressure Visibility Wind Dir Wind Speed Gust Speed Precip Events Conditions
12:15 AM 59.0 °F - 50.0 °F 72% 30.12 in 10.0 mi Calm Calm - N/A   Clear
12:35 AM 59.0 °F - 50.0 °F 72% 30.12 in 10.0 mi Calm Calm - N/A   Clear
12:55 AM 57.2 °F - 50.0 °F 77% 30.12 in 10.0 mi Calm Calm - N/A   Clear
1:15 AM 55.4 °F - 50.0 °F 82% 30.13 in 10.0 mi Calm Calm - N/A   Clear
1:35 AM 55.4 °F - 50.0 °F 82% 30.13 in 10.0 mi Calm Calm - N/A   Clear
1:55 AM 55.4 °F - 51.8 °F 88% 30.13 in 10.0 mi Calm Calm - N/A   Clear
2:15 AM 53.6 °F - 50.0 °F 88% 30.14 in 10.0 mi Calm Calm - N/A   Clear
2:35 AM 53.6 °F - 50.0 °F 88% 30.15 in 10.0 mi Calm Calm - N/A   Clear
2:55 AM 53.6 °F - 50.0 °F 88% 30.15 in 10.0 mi SE 3.5 mph - N/A   Clear
3:15 AM 55.4 °F - 51.8 °F 88% 30.16 in 10.0 mi Calm Calm - N/A   Scattered Clouds
3:35 AM 55.4 °F - 51.8 °F 88% 30.16 in 10.0 mi Calm Calm - N/A   Mostly Cloudy
3:55 AM 53.6 °F - 51.8 °F 94% 30.16 in 10.0 mi Calm Calm - N/A   Scattered Clouds
4:15 AM 57.2 °F - 53.6 °F 88% 30.17 in 10.0 mi Calm Calm - N/A   Mostly Cloudy
4:35 AM 59.0 °F - 53.6 °F 82% 30.17 in 10.0 mi Calm Calm - N/A   Mostly Cloudy
4:55 AM 55.4 °F - 51.8 °F 88% 30.19 in 10.0 mi North 12.7 mph - N/A   Mostly Cloudy
5:15 AM 55.4 °F - 51.8 °F 88% 30.20 in 10.0 mi NNE 3.5 mph - N/A   Clear
5:35 AM 55.4 °F - 51.8 °F 88% 30.21 in 10.0 mi North 4.6 mph - N/A   Clear
5:55 AM 55.4 °F - 51.8 °F 88% 30.22 in 10.0 mi Calm Calm - N/A   Clear
6:15 AM 53.6 °F - 51.8 °F 94% 30.23 in 10.0 mi North 9.2 mph - N/A   Scattered Clouds
6:35 AM 57.2 °F - 51.8 °F 82% 30.24 in 10.0 mi NNE 9.2 mph - N/A   Scattered Clouds
6:55 AM 59.0 °F - 51.8 °F 77% 30.25 in 10.0 mi NNE 10.4 mph 17.3 mph N/A   Scattered Clouds
7:15 AM 59.0 °F - 51.8 °F 77% 30.27 in 10.0 mi North 11.5 mph - N/A   Mostly Cloudy
7:35 AM 59.0 °F - 50.0 °F 72% 30.28 in 10.0 mi North 16.1 mph 19.6 mph N/A   Overcast
7:55 AM 59.0 °F - 44.6 °F 59% 30.29 in 10.0 mi North 15.0 mph 23.0 mph N/A   Overcast
8:15 AM 59.0 °F - 42.8 °F 55% 30.31 in 10.0 mi NNE 16.1 mph 25.3 mph N/A   Overcast
8:35 AM 59.0 °F - 42.8 °F 55% 30.33 in 10.0 mi NNE 15.0 mph 31.1 mph N/A   Overcast
8:55 AM 59.0 °F - 41.0 °F 51% 30.34 in 10.0 mi North 18.4 mph 26.5 mph N/A   Overcast
9:15 AM 59.0 °F - 39.2 °F 48% 30.35 in 10.0 mi NNE 16.1 mph 31.1 mph N/A   Overcast
9:35 AM 59.0 °F - 37.4 °F 45% 30.37 in 0.2 mi North 19.6 mph 28.8 mph N/A   Haze
9:55 AM 59.0 °F - 35.6 °F 42% 30.38 in 10.0 mi NNE 16.1 mph 26.5 mph N/A   Overcast
10:15 AM 59.0 °F - 33.8 °F 39% 30.38 in 10.0 mi NNE 19.6 mph 26.5 mph N/A   Overcast
10:35 AM 60.8 °F - 33.8 °F 36% 30.39 in 10.0 mi NNE 20.7 mph 28.8 mph N/A   Scattered Clouds
10:55 AM 60.8 °F - 32.0 °F 34% 30.39 in 10.0 mi NNE 20.7 mph 27.6 mph N/A   Mostly Cloudy
11:15 AM 62.6 °F - 32.0 °F 32% 30.40 in 10.0 mi North 20.7 mph 27.6 mph N/A   Overcast
11:35 AM 62.6 °F - 32.0 °F 32% 30.40 in 10.0 mi NNE 15.0 mph 27.6 mph N/A   Overcast
11:55 AM 62.6 °F - 30.2 °F 30% 30.39 in 10.0 mi NNE 17.3 mph 23.0 mph N/A   Overcast
12:15 PM 62.6 °F - 30.2 °F 30% 30.39 in 10.0 mi North 16.1 mph 23.0 mph N/A   Overcast
12:35 PM 62.6 °F - 26.6 °F 26% 30.38 in 10.0 mi NNE 12.7 mph 25.3 mph N/A   Overcast
12:55 PM 64.4 °F - 26.6 °F 24% 30.38 in 10.0 mi North 16.1 mph 25.3 mph N/A   Overcast
1:15 PM 64.4 °F - 26.6 °F 24% 30.38 in 10.0 mi North 20.7 mph 26.5 mph N/A   Mostly Cloudy
1:35 PM 64.4 °F - 26.6 °F 24% 30.37 in 10.0 mi NE 13.8 mph 24.2 mph N/A   Scattered Clouds
1:55 PM 64.4 °F - 26.6 °F 24% 30.36 in 10.0 mi North 16.1 mph 23.0 mph N/A   Clear
2:15 PM 64.4 °F - 26.6 °F 24% 30.36 in 10.0 mi NNE 12.7 mph 20.7 mph N/A   Clear
2:35 PM 64.4 °F - 28.4 °F 26% 30.37 in 10.0 mi North 18.4 mph 21.9 mph N/A   Mostly Cloudy
2:55 PM 64.4 °F - 28.4 °F 26% 30.37 in 10.0 mi North 16.1 mph 20.7 mph N/A   Mostly Cloudy
3:15 PM 64.4 °F - 28.4 °F 26% 30.37 in 10.0 mi NNE 15.0 mph 21.9 mph N/A   Mostly Cloudy
3:35 PM 62.6 °F - 26.6 °F 26% 30.37 in 10.0 mi NNE 13.8 mph 20.7 mph N/A   Scattered Clouds
3:55 PM 62.6 °F - 28.4 °F 27% 30.37 in 10.0 mi NNE 15.0 mph 20.7 mph N/A   Scattered Clouds
4:15 PM 62.6 °F - 28.4 °F 27% 30.37 in 10.0 mi NNE 15.0 mph 19.6 mph N/A   Scattered Clouds
4:35 PM 62.6 °F - 23.0 °F 22% 30.37 in 10.0 mi North 12.7 mph - N/A   Mostly Cloudy
4:55 PM 60.8 °F - 23.0 °F 23% 30.38 in 10.0 mi North 12.7 mph 16.1 mph N/A   Scattered Clouds
5:15 PM 59.0 °F - 23.0 °F 25% 30.38 in 10.0 mi North 8.1 mph - N/A   Clear
5:35 PM 59.0 °F - 23.0 °F 25% 30.39 in 10.0 mi North 8.1 mph - N/A   Clear
5:55 PM 55.4 °F - 23.0 °F 29% 30.40 in 10.0 mi North 8.1 mph - N/A   Clear
6:15 PM 55.4 °F - 23.0 °F 29% 30.40 in 10.0 mi North 8.1 mph - N/A   Clear
6:35 PM 55.4 °F - 23.0 °F 29% 30.40 in 10.0 mi North 6.9 mph - N/A   Clear
6:55 PM 51.8 °F - 23.0 °F 33% 30.41 in 10.0 mi North 5.8 mph - N/A   Clear
7:15 PM 51.8 °F - 23.0 °F 33% 30.41 in 10.0 mi North 5.8 mph - N/A   Clear
7:35 PM 53.6 °F - 23.0 °F 30% 30.42 in 10.0 mi North 5.8 mph - N/A   Clear
7:55 PM 51.8 °F - 23.0 °F 33% 30.43 in 10.0 mi North 3.5 mph - N/A   Clear
8:15 PM 50.0 °F - 23.0 °F 35% 30.44 in 10.0 mi North 6.9 mph - N/A   Clear
8:35 PM 50.0 °F - 23.0 °F 35% 30.43 in 10.0 mi North 6.9 mph - N/A   Clear
8:55 PM 51.8 °F - 23.0 °F 33% 30.43 in 10.0 mi North 6.9 mph - N/A   Clear
9:15 PM 46.4 °F 42.9 °F 23.0 °F 40% 30.43 in 10.0 mi North 6.9 mph - N/A   Clear
9:35 PM 50.0 °F - 23.0 °F 35% 30.44 in 10.0 mi North 4.6 mph - N/A   Clear
9:55 PM 46.4 °F 45.2 °F 23.0 °F 40% 30.43 in 10.0 mi North 3.5 mph - N/A   Clear
10:15 PM 44.6 °F 42.2 °F 23.0 °F 43% 30.44 in 10.0 mi North 4.6 mph - N/A   Clear
10:35 PM 44.6 °F 40.7 °F 23.0 °F 43% 30.43 in 10.0 mi North 6.9 mph - N/A   Clear
10:55 PM 44.6 °F 41.4 °F 23.0 °F 43% 30.43 in 10.0 mi North 5.8 mph - N/A   Clear
11:15 PM 44.6 °F 40.7 °F 23.0 °F 43% 30.44 in 10.0 mi North 6.9 mph - N/A   Clear
11:35 PM 44.6 °F 40.7 °F 23.0 °F 43% 30.44 in 10.0 mi North 6.9 mph - N/A   Clear
11:55 PM 44.6 °F 41.4 °F 21.2 °F 39% 30.45 in 10.0 mi North 5.8 mph - N/A   Clear